Regional Weather Roundup
Issued by NWS

Home | Current Version | Previous Version | Graphics & Text | Print | Product List | Glossary Off
Versions: 1 2 3 4 5 6 7 8 9 10 11 12 13 14 15 16 17 18 19 20 21 22 23 24 25 26 27 28 29 30 31 32 33 34 35 36 37 38 39 40 41 42 43 44 45 46 47 48 49 50

000
ASUS43 KMPX 191310
RWRMN
WEATHER ROUNDUP FOR MINNESOTA
NATIONAL WEATHER SERVICE TWIN CITIES/CHANHASSEN MN
800 AM CDT SUN APR 19 2015


NOTE: "FAIR" INDICATES FEW OR NO CLOUDS BELOW 12,000 FEET WITH NO
SIGNIFICANT WEATHER AND/OR OBSTRUCTIONS TO VISIBILITY. N/A MEANS
CURRENT SKY AND/OR WEATHER CONDITIONS ARE NOT AVAILABLE.

MNZ060>063-068>070-191400-
   Twin Cities Metro

CITY           SKY/WX    TMP DP  RH WIND       PRES   REMARKS
TWIN CITIES    CLOUDY    48  45  89 SE9       29.72F
ST PAUL        CLOUDY    47  45  93 SE10      29.74F FOG
CRYSTAL        CLOUDY    49  45  86 SE9       29.71F
BLAINE         CLOUDY    48  46  93 SE8       29.72F
LAKEVILLE      CLOUDY    48  46  93 SE5       29.72F
EDEN PRAIRIE   CLOUDY    50  45  83 SE9       29.71F
SOUTH ST PAUL  CLOUDY    47  45  91 SE5       29.73F FOG
LAKE ELMO      RAIN      45  43  93 E3        29.75S
$$
MNZ001>005-007-008-013>017-022>024-027-028-191400-
   Northwest Minnesota

CITY           SKY/WX    TMP DP  RH WIND       PRES   REMARKS
BEMIDJI        DRIZZLE   39  38  97 E5        29.69F
HALLOCK        RAIN      46  45  93 N10       29.71F
ROSEAU         DRIZZLE   43  37  81 SE8       29.72F
WARROAD        DRIZZLE   41  37  87 E3        29.73F
THIEF RVR FALL CLOUDY    45  43  93 E3        29.71F
CROOKSTON      RAIN      46  46 100 NW7       29.71F
FOSSTON        DRIZZLE   43  39  87 CALM      29.71S
DETROIT LAKES  CLOUDY    45  41  87 CALM      29.69S
MOORHEAD       DRIZZLE   46  46 100 N12       29.70F
PARK RAPIDS    CLOUDY    41  39  93 NE7       29.67F FOG
MAHNOMEN       DRIZZLE   44  43  95 CALM      29.70S
$$
MNZ006-009>011-018-025>026-191400-
   North Central Minnesota

CITY           SKY/WX    TMP DP  RH WIND       PRES   REMARKS
BAUDETTE       LGT RAIN  40  38  93 SE8       29.74F
FLAG ISLAND    LGT RAIN  37  36  93 SE5       29.75S
INTL FALLS     LGT RAIN  40  38  93 E6        29.75F
WASKISH        LGT RAIN  39  39 100 CALM      29.73S
BIG FORK       RAIN      39  37  93 SE7       29.72F
LONGVILLE      DRIZZLE   37  37 100 CALM      29.69F
GRAND RAPIDS   CLOUDY    37  34  87 SE8       29.71F
ORR            DRIZZLE   39  36  87 SE6       29.72F
COOK           RAIN      37  37 100 E5        29.75F
WALKER         DRIZZLE   39  38  97 E6        29.69F
$$
MNZ012-019>021-037-191400-
   Northeast Minnesota

CITY           SKY/WX    TMP DP  RH WIND       PRES   REMARKS
DULUTH         LGT RAIN  38  36  92 E17       29.76F FOG
ELY            RAIN      36  34  93 E3        29.78S
HIBBING        RAIN      37  35  92 E8        29.73F
EVELETH        RAIN      36  36 100 E6        29.76F
DULUTH HARBOR  LGT RAIN  37  36  93 NE18G25   29.80F
TWO HARBORS    LGT RAIN  41  36  81 E10G16    29.79F
SILVER BAY     RAIN      37  36  93 NE8       29.81F
GRAND MARAIS     N/A     38  34  85 NE10      29.89F
G MARAIS ARPRT RAIN      34  28  80 E8        29.85F WCI  27
$$
MNZ029>031-032-039>041-046>048-054>057-064-191400-
   West Central Minnesota

CITY           SKY/WX    TMP DP  RH WIND       PRES   REMARKS
FERGUS FALLS   CLOUDY    45  45 100 N8G16     29.69S
WHEATON        CLOUDY    46  45  93 NW16G22   29.73R
MORRIS         CLOUDY    48  46  93 NW16      29.69R
ALEXANDRIA     CLOUDY    48  46  93 W12       29.66S
ELBOW LAKE     CLOUDY    45  45 100 NW12      29.68R
WADENA         DRIZZLE   43  43 100 E5        29.65R
GLENWOOD       CLOUDY    48  48 100 W13       29.67R FOG
APPLETON       MOSUNNY   52  48  87 NW16      29.70R
BENSON         CLOUDY    50  46  87 N15       29.69R
ORTONVILLE     CLOUDY    48  46  93 NW16G23   29.70S
MADISON        CLOUDY    50  48  93 NW15      29.71R
WILLMAR        LGT RAIN  54  54 100 W18G26    29.68S
$$
MNZ033>034-036-042>043-049>051-058-059-191400-
   Central Minnesota

CITY           SKY/WX    TMP DP  RH WIND       PRES   REMARKS
ST CLOUD       CLOUDY    48  45  89 SE12      29.68F
SAUK CENTRE    RAIN      49  49  99 SE12      29.65S
PAYNESVILLE    CLOUDY    49  49 100 E7        29.66F FOG
AITKIN         CLOUDY    43  36  75 E8        29.67F
PINE RIVER     DRIZZLE   39  39 100 E7        29.71F
BRAINERD       LGT RAIN  43  42  97 SE8       29.67F FOG
STAPLES        DRIZZLE   45  43  93 SE3       29.65F
LONG PRAIRIE   CLOUDY    46  46 100 SE12      29.65F FOG
LITTLE FALLS   DRIZZLE   45  43  93 SE9       29.66F
LITCHFIELD     DRIZZLE   54  54 100 SE8       29.68S
BUFFALO        CLOUDY    49  45  88 SE9       29.70F
MAPLE LAKE     CLOUDY    50  48  93 SE8       29.69F
$$
MNZ037-044-045-052-053-191400-
   East Central Minnesota

CITY           SKY/WX    TMP DP  RH WIND       PRES   REMARKS
PRINCETON      CLOUDY    46  45  93 SE9       29.70F
MORA           CLOUDY    41  37  87 SE6       29.73F
CAMBRIDGE      CLOUDY    46  37  71 SE5       29.70F
RUSH CITY      CLOUDY    43  40  91 SE6       29.74F
MOOSE LAKE     LGT RAIN  37  36  93 CALM      29.72F
HINCKLEY       DRIZZLE   43  43 100 CALM      29.74F
CLOQUET        LGT RAIN  37  36  93 E9        29.75F
MCGREGOR       CLOUDY    37  37 100 SE9       29.72F
$$
MNZ071>073-080-081-089-090-097-098-191400-
   Southwest Minnesota

CITY           SKY/WX    TMP DP  RH WIND       PRES   REMARKS
MONTEVIDEO     CLOUDY    52  52 100 N12G18    29.71R
GRANITE FALLS  CLOUDY    51  49  95 W16       29.72R
CANBY          CLOUDY    50  47  89 NW14G22   29.73S
MARSHALL       CLOUDY    52  45  76 NW16G25   29.72R
REDWOOD FALLS  CLOUDY    56  54  93 SW10      29.68S FOG
OLIVIA         CLOUDY    52  50  93 SW10      29.67S FOG
PIPESTONE      CLOUDY    52  48  87 NW16G23   29.72S FOG
WINDOM         CLOUDY    55  54  94 SW8       29.71S
WORTHINGTON    CLOUDY    55  52  88 W9        29.72S
JACKSON        CLOUDY    54  52  94 SW7       29.72F FOG
TRACY          PTSUNNY   56  54  92 W15G21    29.71R
SLAYTON        CLOUDY    53  53  97 W12G18    29.72R
$$
MNZ065>067-074>077-082>085-091>093-191400-
   South Central Minnesota

CITY           SKY/WX    TMP DP  RH WIND       PRES   REMARKS
MANKATO        CLOUDY    54  48  82 S10       29.71F
NEW ULM        CLOUDY    55  55 100 S8        29.69F FOG
ST JAMES       PTSUNNY   57  55  94 S7        29.71F FOG
FAIRMONT       CLOUDY    54  45  71 S8        29.71S VSB 1/4
GLENCOE        CLOUDY    53  52  98 SE8       29.69S
FARIBAULT      CLOUDY    54  50  87 S9        29.72F
OWATONNA       PTSUNNY   52  48  87 S13G18    29.72F
ALBERT LEA     CLOUDY    54  52  94 S5        29.73F FOG
$$
MNZ078>079-086>088-094>096-191400-
   Southeast Minnesota

CITY           SKY/WX    TMP DP  RH WIND       PRES   REMARKS
ROCHESTER      CLOUDY    50  43  77 S13       29.76F
RED WING       CLOUDY    50  43  76 SE9       29.74F
STANTON        CLOUDY    52  46  79 SE6       29.72F
DODGE CENTER   CLOUDY    52  46  82 S10       29.74S
WINONA         CLOUDY    52  37  58 SE8       29.77F
AUSTIN         CLOUDY    52  46  82 S8        29.74F
PRESTON        CLOUDY    49  40  71 SE6       29.77S
$$
ABBREVIATIONS USED IN REMARKS
   TC - TEMPERATURES IN CELSIUS
  WCI - WIND CHILL INDEX
   HX - HEAT INDEX
  VSB - VISIBILITY
$$


USA.gov is the U.S. government's official web portal to all federal, state and local government web resources and services.